GCOM-C (SHIKISAI) (43065 NORAD) Tracking and Keplerian Element Data

This shows tracking and keplerian element data for the satellite.

Feedback or suggestion? Click here.




ElementValue
Catalog43065
NameGCOM-C (SHIKISAI)
Epoch Orbit424
Epoch Day21.79955507
Epoch Year2018
RAAN95.2727
Inclination98.6834
Eccentricity7.61E-05
Argument of Perigee122.4314
Mean Anonmoly237.6896
Mean Motion14.27257721
Decay Rate-4.4E-07
L11 43065U 17082A 18021.79955507 -.00000044 00000-0 00000+0 0 9993
L22 43065 98.6834 95.2727 0000761 122.4314 237.6896 14.27257721 4240

Live tracking and technical data element details for GCOM-C (SHIKISAI) (NORAD 43065). GCOM-C (SHIKISAI) can be tracked NOW for your location showing map with azimuth and elevation plus other details from your city location.

Track the satellite on the map from your city or location and see movement details for azimuth, elevation, latitude, longitude, range, height, and movement on the map or in text.







IsCatalogInMostPopularTable: catalog: 43065, numindb: 145
Update: records affected: 1



GetName: 43065 GCOM-C (SHIKISAI)

Hit Count: updated at: Wed, 14 Nov 2018 15:02:29 GMT